| time (UTC) | temp F | wind direction | speed MPH | gust MPH | rain 1hr in | rain 24hr in | rain mn in | humidity % | barometer mb |
| 20260901144609 | 63 | 166 | 2.0 | 12.0 | 0.00 | 0.03 | 0.01 | 53 | 1024.5 |
| 20260901143108 | 63 | 121 | 3.0 | 10.0 | 0.00 | 0.03 | 0.01 | 53 | 1024.4 |
| 20260901141605 | 63 | 216 | 2.0 | 10.0 | 0.00 | 0.03 | 0.01 | 52 | 1024.3 |
| 20260901134601 | 61 | 229 | 2.0 | 7.0 | 0.00 | 0.03 | 0.01 | 58 | 1024.2 |
| 20260901133106 | 61 | 283 | 1.0 | 11.0 | 0.00 | 0.03 | 0.01 | 58 | 1023.9 |
| 20260901131604 | 61 | 229 | 4.0 | 10.0 | 0.00 | 0.03 | 0.01 | 59 | 1023.7 |
| 20260901130105 | 60 | 180 | 5.0 | 12.0 | 0.00 | 0.03 | 0.01 | 60 | 1023.5 |
| 20260901124606 | 60 | 127 | 3.0 | 7.0 | 0.00 | 0.03 | 0.01 | 62 | 1023.3 |
| 20260901123105 | 58 | 184 | 2.0 | 7.0 | 0.00 | 0.03 | 0.01 | 65 | 1022.8 |
| 20260901121613 | 58 | 0 | 0.0 | 3.0 | 0.00 | 0.03 | 0.01 | 68 | 1022.7 |
| 20260901120114 | 57 | 0 | 0.0 | 2.0 | 0.00 | 0.03 | 0.01 | 71 | 1022.8 |
| 20260901114609 | 57 | 217 | 2.0 | 3.0 | 0.00 | 0.03 | 0.01 | 71 | 1022.8 |
| 20260901113104 | 57 | 0 | 0.0 | 2.0 | 0.00 | 0.03 | 0.01 | 72 | 1022.8 |
| 20260901111606 | 57 | 0 | 1.0 | 2.0 | 0.00 | 0.03 | 0.01 | 72 | 1022.8 |
| 20260901104603 | 58 | 222 | 1.0 | 4.0 | 0.00 | 0.03 | 0.01 | 72 | 1023.0 |
| 20260901103107 | 57 | 239 | 1.0 | 3.0 | 0.00 | 0.03 | 0.01 | 74 | 1022.9 |
| 20260901101604 | 58 | 0 | 0.0 | 2.0 | 0.00 | 0.03 | 0.01 | 73 | 1023.2 |
| 20260901100106 | 58 | 220 | 1.0 | 4.0 | 0.00 | 0.03 | 0.01 | 72 | 1023.5 |
| 20260901094604 | 58 | 0 | 0.0 | 2.0 | 0.00 | 0.03 | 0.01 | 74 | 1023.6 |
| 20260901093105 | 58 | 0 | 0.0 | 3.0 | 0.00 | 0.03 | 0.01 | 73 | 1023.8 |
| 20260901091615 | 58 | 0 | 0.0 | 1.0 | 0.00 | 0.03 | 0.01 | 73 | 1024.0 |
| 20260901090107 | 57 | 0 | 0.0 | 2.0 | 0.00 | 0.03 | 0.01 | 74 | 1024.0 |
| 20260901084609 | 57 | 0 | 0.0 | 1.0 | 0.00 | 0.03 | 0.01 | 74 | 1024.0 |
| 20260901083107 | 57 | 0 | 0.0 | 0.0 | 0.00 | 0.03 | 0.01 | 75 | 1024.1 |
| 20260901081608 | 57 | 0 | 0.0 | 0.0 | 0.00 | 0.03 | 0.01 | 75 | 1024.6 |
| 20260901080108 | 58 | 0 | 0.0 | 1.0 | 0.00 | 0.03 | 0.01 | 74 | 1024.6 |
| 20260901074605 | 58 | 0 | 0.0 | 1.0 | 0.00 | 0.03 | 0.01 | 73 | 1024.8 |
| 20260901073110 | 58 | 0 | 0.0 | 1.0 | 0.00 | 0.03 | 0.01 | 74 | 1025.0 |
| 20260901071607 | 59 | 0 | 0.0 | 1.0 | 0.00 | 0.03 | 0.01 | 73 | 1024.8 |
| 20260901070109 | 58 | 243 | 0.0 | 2.0 | 0.01 | 0.03 | 0.01 | 73 | 1024.9 |
| 20260901064614 | 58 | 0 | 0.0 | 1.0 | 0.01 | 0.03 | 0.01 | 75 | 1024.8 |
| 20260901063107 | 59 | 0 | 0.0 | 1.0 | 0.01 | 0.03 | 0.01 | 73 | 1024.9 |
| 20260901061612 | 59 | 287 | 0.0 | 5.0 | 0.01 | 0.03 | 0.01 | 71 | 1024.6 |
| 20260901060107 | 59 | 221 | 1.0 | 5.0 | 0.00 | 0.02 | 0.00 | 69 | 1024.9 |
| 20260901054616 | 59 | 0 | 0.0 | 3.0 | 0.00 | 0.02 | 0.02 | 70 | 1024.7 |
| 20260901053120 | 58 | 0 | 0.0 | 0.0 | 0.00 | 0.02 | 0.02 | 74 | 1024.8 |
| 20260901051621 | 59 | 0 | 0.0 | 0.0 | 0.00 | 0.02 | 0.02 | 73 | 1025.1 |
| 20260901050107 | 58 | 0 | 0.0 | 1.0 | 0.00 | 0.02 | 0.02 | 75 | 1025.3 |
| 20260901044606 | 58 | 0 | 0.0 | 0.0 | 0.00 | 0.02 | 0.02 | 74 | 1025.4 |
| 20260901043102 | 58 | 0 | 0.0 | 0.0 | 0.00 | 0.02 | 0.02 | 74 | 1025.2 |
| 20260901041605 | 58 | 0 | 0.0 | 3.0 | 0.00 | 0.02 | 0.02 | 74 | 1025.1 |
| 20260901040105 | 57 | 229 | 0.0 | 2.0 | 0.01 | 0.02 | 0.02 | 78 | 1024.9 |
| 20260901034602 | 58 | 0 | 0.0 | 7.0 | 0.01 | 0.02 | 0.02 | 75 | 1024.8 |
| 20260901033102 | 58 | 243 | 0.0 | 3.0 | 0.02 | 0.02 | 0.02 | 76 | 1025.9 |
| 20260901031603 | 58 | 252 | 0.0 | 8.0 | 0.02 | 0.02 | 0.02 | 79 | 1026.2 |
| 20260901030100 | 59 | 203 | 4.0 | 12.0 | 0.01 | 0.01 | 0.01 | 75 | 1026.4 |
| 20260901024611 | 59 | 195 | 4.0 | 12.0 | 0.01 | 0.01 | 0.01 | 73 | 1026.4 |
| 20260901023101 | 62 | 255 | 6.0 | 19.0 | 0.00 | 0.00 | 0.00 | 68 | 1026.1 |
| 20260901021605 | 64 | 212 | 3.0 | 9.0 | 0.00 | 0.00 | 0.00 | 57 | 1024.9 |
| 20260901014606 | 63 | 186 | 2.0 | 8.0 | 0.00 | 0.00 | 0.00 | 58 | 1024.5 |
| 20260901013118 | 63 | 252 | 2.0 | 7.0 | 0.00 | 0.00 | 0.00 | 60 | 1024.5 |
| 20260901011608 | 62 | 270 | 0.0 | 5.0 | 0.00 | 0.00 | 0.00 | 62 | 1024.8 |
| 20260901010124 | 62 | 224 | 4.0 | 9.0 | 0.00 | 0.00 | 0.00 | 63 | 1024.9 |
| 20260901004615 | 61 | 184 | 4.0 | 12.0 | 0.00 | 0.00 | 0.00 | 66 | 1025.2 |
| 20260901003102 | 62 | 229 | 6.0 | 14.0 | 0.00 | 0.00 | 0.00 | 63 | 1025.1 |
| 20260901001605 | 65 | 187 | 3.0 | 9.0 | 0.00 | 0.00 | 0.00 | 58 | 1025.1 |
| 20260901000108 | 69 | 202 | 3.0 | 8.0 | 0.00 | 0.00 | 0.00 | 39 | 1024.8 |
| 20260831234633 | 70 | 198 | 1.0 | 5.0 | 0.00 | 0.00 | 0.00 | 37 | 1024.4 |
| 20260831233104 | 71 | 80 | 1.0 | 4.0 | 0.00 | 0.00 | 0.00 | 37 | 1024.5 |
| 20260831231604 | 72 | 187 | 2.0 | 5.0 | 0.00 | 0.00 | 0.00 | 37 | 1024.5 |
| 20260831230108 | 73 | 330 | 1.0 | 5.0 | 0.00 | 0.00 | 0.00 | 35 | 1024.6 |
| 20260831224604 | 73 | 23 | 0.0 | 6.0 | 0.00 | 0.00 | 0.00 | 34 | 1024.6 |
| 20260831223103 | 73 | 37 | 2.0 | 8.0 | 0.00 | 0.00 | 0.00 | 34 | 1024.6 |
| 20260831221607 | 73 | 44 | 2.0 | 9.0 | 0.00 | 0.00 | 0.00 | 34 | 1024.6 |
| 20260831220104 | 73 | 353 | 2.0 | 8.0 | 0.00 | 0.00 | 0.00 | 34 | 1024.6 |
| 20260831214618 | 74 | 20 | 2.0 | 6.0 | 0.00 | 0.00 | 0.00 | 33 | 1024.6 |
| 20260831213104 | 74 | 326 | 3.0 | 8.0 | 0.00 | 0.00 | 0.00 | 32 | 1024.6 |
| 20260831211605 | 74 | 20 | 2.0 | 6.0 | 0.00 | 0.00 | 0.00 | 31 | 1024.8 |
| 20260831204608 | 74 | 50 | 2.0 | 12.0 | 0.00 | 0.05 | 0.00 | 35 | 1025.1 |
| 20260831203106 | 74 | 36 | 4.0 | 10.0 | 0.00 | 0.05 | 0.00 | 37 | 1025.2 |
| 20260831201622 | 74 | 31 | 4.0 | 10.0 | 0.00 | 0.05 | 0.00 | 37 | 1025.2 |
| 20260831200107 | 75 | 24 | 3.0 | 8.0 | 0.00 | 0.05 | 0.00 | 37 | 1025.3 |
| 20260831194611 | 74 | 84 | 4.0 | 8.0 | 0.00 | 0.05 | 0.00 | 38 | 1025.5 |
| 20260831193136 | 72 | 1 | 3.0 | 10.0 | 0.00 | 0.05 | 0.00 | 40 | 1025.5 |
| 20260831191604 | 75 | 356 | 2.0 | 9.0 | 0.00 | 0.05 | 0.00 | 38 | 1025.6 |
| 20260831190106 | 73 | 86 | 2.0 | 7.0 | 0.00 | 0.05 | 0.00 | 40 | 1025.7 |
| 20260831184606 | 72 | 33 | 3.0 | 12.0 | 0.00 | 0.05 | 0.00 | 41 | 1025.9 |
| 20260831183108 | 71 | 58 | 3.0 | 7.0 | 0.00 | 0.05 | 0.00 | 42 | 1026.1 |
| 20260831181613 | 70 | 350 | 1.0 | 6.0 | 0.00 | 0.05 | 0.00 | 43 | 1026.1 |
| 20260831180109 | 69 | 72 | 2.0 | 5.0 | 0.00 | 0.05 | 0.00 | 44 | 1026.2 |
| 20260831174615 | 69 | 18 | 3.0 | 6.0 | 0.00 | 0.05 | 0.00 | 44 | 1026.3 |
| 20260831173106 | 69 | 34 | 4.0 | 6.0 | 0.00 | 0.05 | 0.00 | 44 | 1026.2 |
| 20260831171607 | 69 | 46 | 2.0 | 6.0 | 0.00 | 0.05 | 0.00 | 43 | 1026.4 |
| 20260831170107 | 69 | 338 | 2.0 | 5.0 | 0.00 | 0.05 | 0.00 | 43 | 1026.3 |
| 20260831164613 | 69 | 33 | 2.0 | 8.0 | 0.00 | 0.05 | 0.00 | 41 | 1026.2 |
| 20260831163101 | 70 | 7 | 4.0 | 7.0 | 0.00 | 0.05 | 0.00 | 40 | 1026.1 |
| 20260831161612 | 71 | 23 | 1.0 | 7.0 | 0.00 | 0.05 | 0.00 | 37 | 1026.0 |
| 20260831160111 | 72 | 13 | 0.0 | 6.0 | 0.00 | 0.05 | 0.00 | 35 | 1025.8 |
| 20260831154629 | 72 | 6 | 2.0 | 5.0 | 0.00 | 0.05 | 0.00 | 34 | 1025.8 |
| 20260831153104 | 73 | 27 | 0.0 | 3.0 | 0.00 | 0.05 | 0.00 | 34 | 1025.8 |
| 20260831151608 | 71 | 274 | 1.0 | 3.0 | 0.00 | 0.05 | 0.00 | 35 | 1025.9 |
| 20260831150107 | 69 | 0 | 0.0 | 3.0 | 0.00 | 0.05 | 0.00 | 38 | 1025.8 |